Vorticity
13 13 20 12 -3 7 5 8 38 32 8 8 8 11 15 9 12 16 14 15 10 -3 -3 18 25 6 -1 3 1 2 3 3 4 4 4 4 3 8 10 7 6 3 3 9 8 2 1 4 7 7 5 7 8 8 8 5 6 5 6 7 6 6 6
11 11 19 19 7 15 12 5 29 26 4 3 2 11 22 9 5 14 11 11 19 11 -1 17 29 7 -3 5 2 1 3 2 5 4 1 4 7 7 8 7 3 3 7 7 5 5 2 1 5 8 8 7 6 8 8 7 7 6 5 6 6 6 6
7 9 14 19 18 25 16 -1 10 18 16 16 3 3 14 3 2 20 18 4 14 23 6 6 22 11 -1 3 3 2 2 2 4 5 2 3 7 6 6 9 6 5 6 5 5 6 5 2 1 5 8 7 7 6 7 8 8 8 5 5 6 6 6
6 8 10 17 25 29 19 5 0 -2 12 35 29 14 8 0 4 17 16 2 9 25 11 4 21 17 3 3 4 3 3 2 3 5 5 2 4 5 7 11 10 6 4 3 5 6 6 6 5 4 5 6 7 7 8 8 8 10 7 6 6 6 6
7 7 8 16 26 25 16 13 7 -8 -5 14 23 22 17 12 14 14 7 3 13 22 11 12 25 14 3 6 4 3 4 3 2 3 3 3 5 4 5 9 9 6 5 3 4 5 6 7 8 6 5 5 6 6 7 7 7 9 8 8 8 7 8
8 6 6 15 26 27 20 16 12 3 -0 1 4 19 26 21 22 19 7 5 15 16 6 13 20 6 1 6 3 4 4 2 3 2 0 2 5 4 3 8 9 5 5 4 2 4 5 6 7 8 7 6 6 6 6 7 7 8 8 8 8 8 9
9 6 6 15 25 27 21 18 14 3 3 8 1 11 29 25 18 12 6 9 15 10 6 19 23 5 -0 6 3 3 4 3 4 2 2 2 2 4 3 8 11 6 5 5 3 3 3 4 6 7 8 8 7 7 6 7 7 6 7 7 7 7 8
9 6 6 16 27 27 17 15 20 12 14 18 0 4 30 30 17 12 12 15 15 5 -6 10 28 9 -3 7 4 1 4 4 5 4 4 4 1 3 3 5 10 7 6 5 2 3 3 4 5 5 6 6 6 7 7 7 7 5 6 7 7 7 7
9 8 7 15 26 28 19 11 9 7 17 22 2 5 25 20 16 26 25 12 11 12 -10 -5 27 16 -5 5 5 2 7 5 7 9 6 6 3 1 0 1 5 7 8 6 2 2 3 3 5 5 5 5 5 7 9 8 7 6 5 6 7 8 7
9 8 6 14 25 29 23 14 5 -3 7 17 6 11 23 12 7 19 24 9 -1 7 -3 1 34 24 -4 4 6 -0 5 4 7 12 9 7 1 -3 -3 -4 -2 2 6 7 4 2 2 2 4 4 4 4 4 4 7 8 8 7 6 5 6 7 8
9 9 6 9 21 31 26 18 11 -0 3 15 9 10 19 15 9 11 17 12 -2 -2 -4 4 38 31 -1 3 6 -1 2 1 3 7 5 3 -2 -4 -1 -1 1 5 4 5 6 3 1 1 2 3 4 4 4 3 4 5 6 7 7 6 5 4 7
9 7 8 7 14 29 31 23 18 5 -1 12 12 5 4 2 7 16 17 12 8 12 2 1 32 33 2 -1 3 -3 0 4 4 5 3 1 -0 -1 -0 -0 5 10 6 4 5 5 2 1 2 2 3 4 4 3 4 5 5 7 6 6 6 4 4
14 7 6 7 8 22 32 27 22 9 -3 7 13 6 2 -3 -1 19 29 18 15 26 22 19 35 28 0 0 3 -7 -3 5 5 5 5 5 5 2 0 -0 2 7 7 4 5 6 3 1 2 2 2 3 3 3 5 5 4 6 7 5 6 6 5
19 11 5 7 6 13 29 31 26 15 -1 -0 9 5 3 -0 -1 20 36 23 13 21 27 32 37 23 2 0 -1 -8 -0 10 8 8 9 8 9 8 6 3 1 3 6 5 5 5 4 2 1 1 2 2 2 3 4 4 3 4 6 6 5 6 7
21 18 7 6 6 6 21 32 31 22 3 -6 1 4 5 1 2 23 35 18 5 6 10 17 20 14 7 2 -0 2 9 14 12 10 10 9 10 14 16 15 11 7 6 6 5 5 6 5 2 1 2 2 2 2 2 4 3 2 4 5 5 5 5
16 23 14 6 6 4 11 26 35 30 14 0 -4 1 10 7 6 25 30 13 8 8 5 8 11 13 15 12 11 14 14 11 7 4 5 5 5 9 16 21 19 14 10 8 6 4 5 6 5 3 1 1 2 2 2 3 2 2 2 2 4 4 4
10 20 22 12 6 4 5 15 31 35 24 13 3 -1 8 11 6 17 22 10 5 6 6 12 15 12 12 10 6 8 9 6 3 2 5 6 4 5 10 14 14 12 11 10 7 6 6 7 7 4 2 2 2 1 3 2 1 2 2 1 2 2 3
9 14 23 21 10 5 4 6 20 34 31 21 13 4 6 11 6 8 18 15 4 -1 3 14 18 11 7 11 12 10 9 5 2 4 6 5 3 2 5 9 9 6 7 8 8 8 8 8 8 7 4 2 2 2 2 2 2 2 1 2 3 3 3
12 10 18 25 18 8 5 4 9 24 33 29 21 10 2 7 6 1 10 18 13 2 -5 -0 14 16 9 10 13 10 7 5 5 6 5 2 0 0 3 9 11 7 2 4 6 6 8 9 8 9 7 2 2 3 3 3 3 2 2 3 4 7 6
13 12 13 22 24 14 7 6 4 12 26 33 29 19 5 3 6 1 1 9 15 15 3 -9 -2 8 5 2 2 1 2 3 5 7 6 4 3 4 5 7 13 12 5 4 3 -0 5 12 10 10 10 4 2 3 3 4 4 3 5 4 5 8 7
13 14 14 17 24 20 10 6 5 5 14 28 33 28 15 6 5 5 1 0 3 11 14 4 -4 -3 1 2 2 3 6 6 8 10 10 8 7 8 9 9 13 15 11 9 6 0 3 9 10 14 14 6 3 4 4 5 5 4 5 4 4 6 6
11 13 15 17 22 25 15 7 7 5 6 17 29 33 25 13 9 8 6 5 2 2 8 12 10 5 6 7 6 5 5 4 6 8 10 13 12 9 9 10 10 10 9 9 10 11 12 9 9 17 17 6 3 5 4 5 6 5 5 4 3 5 6
10 11 14 17 21 26 21 10 7 7 5 8 19 30 31 22 14 11 9 9 7 5 4 6 8 6 5 4 2 1 -0 -0 2 3 6 10 12 10 10 12 14 12 9 8 6 8 13 14 15 19 15 4 2 5 4 4 5 5 4 4 3 4 6
9 11 13 16 20 25 25 16 7 6 7 6 10 21 29 28 21 14 12 11 10 10 9 5 3 5 5 3 1 1 3 5 5 4 5 8 11 13 12 11 16 20 18 14 10 8 10 17 20 19 11 2 1 4 2 2 4 5 5 5 3 4 5
10 11 12 15 19 23 25 20 11 6 6 7 7 12 20 27 27 20 15 13 12 11 9 7 8 10 10 8 6 7 7 8 8 7 7 8 11 18 16 4 2 13 20 20 17 12 10 11 14 12 6 1 1 3 1 0 3 4 6 7 4 4 4
12 14 13 14 19 23 24 22 15 8 6 7 7 9 13 19 25 27 22 15 12 10 9 9 10 11 11 10 9 9 9 9 10 10 10 8 8 16 23 14 -2 -4 5 15 18 15 10 7 6 5 3 2 5 5 2 2 6 7 9 10 7 5 4
15 14 13 15 19 22 24 23 18 12 7 5 6 8 10 12 18 24 26 23 17 13 11 10 10 10 11 11 10 11 11 9 8 9 10 10 6 7 17 25 19 3 -7 -6 2 7 8 8 7 5 3 4 7 5 2 3 5 6 7 9 8 7 5
16 14 13 15 19 22 23 22 21 17 11 7 6 6 8 9 12 16 22 26 25 20 15 12 11 11 11 11 11 11 11 9 8 7 7 9 9 7 7 15 25 26 15 4 -0 2 5 5 6 8 9 9 7 3 2 3 5 5 6 6 6 6 6
16 13 12 15 19 21 21 21 21 21 17 13 9 7 7 8 9 10 14 20 24 25 22 17 13 12 12 12 12 11 11 11 9 7 6 6 8 10 8 6 10 18 23 22 20 18 16 12 9 8 8 8 5 2 1 3 5 7 8 7 6 6 5
14 12 11 14 18 18 18 18 19 20 20 18 15 12 10 8 9 9 9 12 16 20 23 22 18 14 12 12 12 13 13 12 11 9 8 8 7 8 10 10 8 8 10 13 16 18 19 19 17 13 9 6 4 2 2 3 6 10 11 11 9 9 9
13 10 9 10 12 13 15 16 16 16 17 17 17 16 14 12 11 11 10 9 10 11 15 19 20 19 16 14 12 12 12 12 12 11 9 8 8 8 7 8 9 9 8 7 9 10 11 13 15 16 14 12 9 9 9 10 13 16 16 17 16 15 15
12 9 7 7 8 10 12 13 13 14 14 14 15 15 15 14 14 13 13 12 11 10 10 11 14 16 17 16 15 14 15 14 14 14 13 11 8 8 8 8 7 8 8 7 8 8 9 10 11 12 12 12 12 12 12 11 11 11 13 15 16 17 17
15 12 11 10 10 11 11 12 13 14 14 14 14 14 14 14 13 13 13 13 13 12 12 11 11 11 12 13 13 13 14 15 14 14 14 14 13 12 11 10 10 9 9 8 8 7 7 8 8 8 8 8 8 8 7 6 6 6 7 7 7 9 12
16 14 13 12 12 12 12 13 13 14 14 14 15 15 15 15 14 14 14 14 13 13 13 13 13 12 12 11 11 11 10 10 11 12 12 13 14 14 14 13 13 13 12 12 12 11 10 9 8 8 8 8 8 7 6 5 5 5 5 5 4 4 5
13 14 14 15 15 16 16 15 12 10 10 11 11 12 13 13 13 14 14 15 15 15 15 15 15 15 15 15 14 14 13 12 11 10 10 10 10 11 11 11 12 12 12 13 13 13 13 13 12 12 11 11 10 10 9 9 9 9 9 9 8 8 7
11 12 12 13 13 13 14 14 13 11 10 9 9 10 10 10 11 11 12 13 14 14 15 16 16 16 17 17 17 17 17 17 16 15 14 14 13 13 13 12 11 11 11 10 11 11 12 12 12 12 11 11 11 11 11 11 12 12 12 12 12 12 12
14 12 11 10 9 9 9 10 11 11 11 11 10 10 9 9 9 9 9 10 10 11 12 12 13 13 14 14 15 16 16 16 16 17 17 18 17 17 17 17 17 17 16 15 14 14 13 13 13 13 12 11 11 10 10 10 10 10 9 10 11 11 11
Height
5750 5750 5751 5751 5751 5753 5753 5753 5755 5758 5761 5765 5767 5770 5773 5776 5780 5783 5786 5788 5790 5794 5799 5803 5806 5809 5813 5816 5818 5820 5820 5822 5825 5827 5829 5830 5832 5833 5834 5836 5837 5838 5840 5841 5842 5843 5845 5845 5846 5846 5847 5847 5848 5848 5849 5849 5850 5851 5851 5852 5853 5854 5854
5747 5747 5747 5747 5748 5750 5750 5751 5753 5756 5759 5761 5764 5767 5770 5774 5777 5780 5783 5785 5787 5789 5794 5798 5802 5805 5809 5813 5815 5817 5818 5820 5822 5825 5827 5828 5830 5831 5833 5834 5836 5837 5838 5839 5840 5842 5843 5844 5845 5845 5846 5846 5847 5847 5847 5848 5848 5849 5850 5851 5852 5853 5853
5744 5744 5744 5744 5744 5746 5748 5750 5751 5753 5756 5757 5760 5764 5767 5770 5774 5776 5778 5781 5783 5784 5788 5793 5797 5801 5805 5808 5811 5813 5815 5817 5820 5822 5824 5826 5828 5830 5831 5833 5834 5835 5835 5836 5838 5840 5842 5843 5844 5845 5845 5846 5846 5846 5847 5847 5847 5848 5849 5850 5851 5851 5852
5740 5740 5740 5741 5741 5743 5746 5748 5748 5750 5752 5754 5756 5760 5763 5766 5770 5772 5773 5775 5778 5781 5784 5789 5794 5797 5801 5805 5808 5810 5812 5814 5817 5819 5821 5823 5825 5827 5829 5830 5832 5832 5833 5834 5835 5838 5840 5841 5842 5843 5844 5844 5845 5846 5846 5846 5847 5847 5847 5848 5849 5850 5851
5737 5737 5737 5737 5738 5739 5741 5744 5745 5747 5749 5751 5753 5756 5758 5762 5766 5768 5770 5772 5775 5777 5780 5785 5790 5794 5797 5801 5805 5807 5810 5812 5814 5816 5819 5821 5822 5824 5826 5827 5828 5830 5831 5832 5833 5835 5837 5839 5840 5841 5842 5843 5844 5845 5845 5845 5846 5846 5846 5847 5848 5849 5850
5734 5734 5733 5734 5735 5736 5737 5739 5742 5744 5746 5748 5750 5752 5753 5756 5761 5764 5766 5769 5771 5773 5776 5781 5785 5790 5794 5798 5801 5804 5807 5809 5811 5813 5815 5818 5819 5821 5823 5824 5826 5827 5828 5829 5831 5833 5835 5836 5838 5839 5840 5841 5842 5843 5844 5844 5844 5845 5845 5845 5846 5847 5848
5731 5731 5730 5730 5731 5732 5733 5735 5738 5741 5743 5745 5746 5748 5749 5752 5756 5760 5763 5766 5769 5771 5775 5778 5782 5786 5790 5794 5798 5801 5803 5806 5808 5810 5812 5815 5817 5818 5820 5822 5823 5825 5826 5827 5829 5830 5832 5834 5835 5837 5838 5840 5841 5842 5842 5842 5843 5843 5844 5844 5844 5845 5846
5728 5728 5728 5727 5728 5729 5730 5732 5735 5738 5740 5742 5743 5745 5747 5749 5752 5756 5759 5763 5766 5769 5772 5777 5780 5783 5787 5791 5794 5797 5800 5802 5805 5807 5810 5812 5814 5816 5818 5819 5821 5822 5824 5825 5826 5828 5829 5831 5832 5834 5836 5837 5838 5839 5840 5841 5841 5842 5842 5843 5843 5843 5844
5725 5726 5725 5724 5725 5726 5727 5730 5733 5735 5737 5739 5741 5743 5744 5746 5749 5753 5756 5759 5763 5766 5770 5774 5777 5780 5784 5787 5791 5794 5796 5799 5802 5804 5807 5809 5811 5813 5815 5816 5818 5820 5821 5822 5824 5825 5826 5827 5829 5831 5833 5835 5836 5837 5838 5839 5839 5839 5840 5841 5842 5842 5843
5723 5723 5723 5722 5722 5723 5725 5727 5730 5733 5734 5736 5739 5741 5742 5744 5746 5750 5754 5757 5760 5764 5768 5772 5773 5776 5781 5784 5788 5791 5793 5796 5798 5801 5803 5806 5808 5810 5811 5813 5815 5817 5818 5819 5821 5822 5823 5824 5826 5827 5829 5831 5833 5834 5836 5837 5837 5837 5838 5839 5840 5840 5841
5720 5721 5720 5720 5720 5720 5722 5724 5727 5730 5732 5734 5736 5738 5740 5742 5744 5748 5751 5754 5757 5760 5765 5768 5770 5773 5777 5781 5785 5788 5790 5793 5795 5798 5800 5803 5805 5807 5808 5811 5813 5814 5815 5816 5818 5819 5820 5822 5823 5824 5826 5827 5829 5832 5833 5834 5834 5835 5835 5836 5837 5838 5839
5717 5718 5718 5718 5718 5718 5719 5721 5724 5727 5729 5731 5733 5735 5738 5740 5742 5745 5746 5749 5752 5755 5759 5763 5765 5769 5774 5778 5782 5785 5787 5790 5792 5794 5797 5799 5801 5804 5805 5808 5809 5810 5811 5813 5815 5816 5818 5819 5820 5821 5822 5824 5826 5828 5830 5831 5832 5832 5832 5833 5834 5835 5836
5714 5715 5715 5716 5716 5716 5717 5719 5721 5723 5725 5728 5730 5732 5734 5737 5739 5741 5742 5745 5748 5751 5754 5757 5761 5765 5770 5774 5778 5781 5783 5786 5788 5790 5793 5795 5797 5800 5802 5804 5806 5807 5808 5810 5811 5813 5814 5816 5817 5818 5819 5821 5822 5824 5826 5828 5829 5829 5829 5830 5831 5832 5834
5712 5712 5713 5713 5714 5714 5715 5716 5718 5721 5722 5724 5727 5729 5731 5733 5736 5738 5739 5742 5745 5748 5750 5753 5757 5762 5767 5770 5774 5777 5779 5781 5784 5786 5788 5790 5793 5795 5798 5800 5802 5803 5804 5806 5808 5809 5811 5812 5814 5815 5816 5817 5819 5820 5822 5824 5826 5826 5826 5826 5827 5829 5830
5710 5710 5710 5711 5711 5712 5712 5713 5715 5718 5720 5722 5724 5726 5729 5731 5733 5735 5736 5739 5742 5746 5748 5750 5754 5759 5763 5766 5770 5772 5775 5777 5780 5782 5784 5786 5788 5790 5793 5795 5797 5799 5800 5802 5804 5806 5807 5809 5810 5812 5813 5814 5815 5817 5818 5820 5822 5823 5824 5823 5823 5825 5827
5707 5707 5708 5708 5709 5709 5710 5711 5712 5714 5717 5719 5721 5723 5726 5728 5731 5733 5734 5736 5739 5742 5745 5748 5752 5755 5759 5762 5766 5769 5772 5774 5776 5778 5780 5782 5784 5786 5788 5790 5793 5794 5796 5798 5800 5801 5803 5805 5807 5808 5809 5810 5812 5813 5814 5816 5818 5819 5820 5821 5820 5821 5822
5704 5705 5705 5706 5706 5707 5707 5708 5709 5711 5713 5716 5718 5721 5723 5725 5728 5730 5731 5733 5736 5739 5742 5745 5749 5752 5755 5758 5762 5765 5768 5770 5772 5774 5776 5778 5780 5782 5784 5786 5788 5790 5792 5794 5795 5797 5799 5801 5803 5804 5806 5807 5808 5809 5810 5812 5814 5815 5816 5817 5818 5817 5818
5701 5701 5702 5703 5704 5704 5705 5706 5707 5708 5710 5712 5715 5717 5720 5722 5724 5726 5728 5731 5734 5736 5739 5742 5745 5749 5752 5755 5758 5761 5763 5766 5768 5770 5773 5775 5776 5778 5780 5782 5784 5786 5788 5790 5791 5793 5796 5797 5798 5800 5802 5803 5804 5806 5807 5808 5810 5811 5812 5814 5815 5815 5815
5699 5698 5699 5699 5701 5702 5703 5704 5704 5705 5707 5709 5711 5714 5716 5719 5721 5723 5725 5727 5730 5733 5736 5738 5741 5745 5748 5750 5753 5756 5759 5761 5763 5765 5768 5770 5771 5773 5775 5777 5779 5781 5783 5785 5787 5789 5791 5793 5794 5796 5797 5799 5800 5802 5803 5804 5805 5806 5808 5810 5811 5811 5811
5696 5696 5695 5696 5697 5699 5700 5701 5702 5703 5704 5705 5707 5710 5713 5715 5717 5719 5721 5723 5726 5729 5732 5734 5737 5740 5743 5745 5748 5751 5754 5756 5758 5761 5763 5765 5767 5768 5771 5773 5775 5777 5780 5781 5783 5785 5787 5788 5790 5791 5793 5795 5796 5798 5799 5800 5801 5802 5804 5805 5807 5808 5808
5693 5693 5693 5693 5693 5694 5696 5698 5699 5700 5701 5702 5704 5706 5709 5711 5714 5716 5718 5720 5722 5724 5727 5730 5733 5735 5738 5741 5744 5747 5750 5752 5754 5756 5758 5760 5762 5764 5766 5768 5771 5773 5775 5777 5778 5781 5782 5783 5785 5787 5789 5791 5792 5794 5795 5796 5797 5798 5800 5801 5803 5804 5804
5690 5690 5690 5690 5690 5691 5692 5694 5695 5697 5698 5699 5700 5703 5705 5707 5710 5713 5715 5717 5719 5721 5724 5726 5729 5732 5734 5737 5740 5743 5746 5749 5751 5753 5755 5756 5758 5760 5762 5763 5766 5768 5770 5772 5774 5776 5777 5778 5780 5782 5784 5787 5788 5789 5790 5791 5793 5794 5795 5797 5799 5800 5800
5688 5687 5687 5687 5687 5688 5689 5691 5692 5694 5695 5696 5698 5699 5701 5704 5706 5708 5711 5713 5716 5718 5720 5722 5725 5728 5731 5734 5737 5740 5743 5745 5747 5749 5750 5752 5753 5755 5757 5759 5761 5763 5765 5766 5768 5770 5771 5772 5774 5777 5779 5781 5782 5784 5785 5787 5788 5790 5791 5792 5793 5794 5795
5685 5685 5684 5684 5684 5685 5686 5688 5689 5691 5693 5694 5695 5697 5698 5700 5702 5705 5707 5709 5712 5714 5717 5720 5723 5725 5728 5731 5734 5736 5738 5740 5742 5744 5746 5747 5749 5750 5752 5754 5756 5758 5760 5762 5763 5765 5766 5767 5769 5771 5773 5775 5777 5778 5780 5781 5783 5785 5786 5787 5788 5789 5790
5682 5682 5682 5682 5682 5682 5683 5685 5686 5688 5690 5691 5693 5694 5696 5697 5699 5701 5703 5706 5709 5712 5714 5716 5718 5721 5724 5726 5729 5731 5733 5735 5737 5739 5741 5742 5744 5745 5747 5750 5751 5753 5755 5757 5758 5759 5761 5763 5765 5766 5768 5769 5771 5772 5774 5776 5778 5779 5781 5781 5783 5784 5786
5679 5679 5679 5679 5679 5679 5680 5681 5683 5685 5687 5689 5690 5692 5693 5695 5696 5698 5700 5703 5705 5707 5709 5712 5714 5717 5719 5722 5724 5726 5729 5731 5733 5735 5737 5739 5740 5741 5743 5745 5747 5749 5750 5752 5754 5755 5756 5758 5759 5761 5762 5763 5765 5767 5768 5770 5772 5774 5775 5776 5777 5779 5782
5677 5677 5677 5677 5677 5677 5677 5679 5680 5682 5684 5686 5688 5689 5691 5692 5694 5696 5697 5699 5701 5704 5706 5708 5710 5713 5715 5718 5720 5722 5724 5727 5729 5731 5732 5734 5736 5738 5739 5740 5742 5744 5746 5747 5748 5750 5751 5753 5754 5755 5756 5758 5759 5761 5763 5764 5766 5768 5769 5770 5772 5774 5777
5674 5675 5675 5675 5675 5675 5675 5676 5678 5680 5681 5683 5685 5687 5688 5690 5691 5693 5695 5696 5698 5700 5703 5705 5707 5709 5711 5713 5715 5718 5720 5722 5724 5726 5728 5730 5731 5733 5735 5736 5738 5739 5741 5743 5744 5745 5746 5747 5749 5750 5751 5752 5754 5756 5758 5759 5761 5762 5763 5765 5766 5769 5771
5673 5673 5674 5674 5674 5674 5674 5675 5676 5677 5679 5681 5682 5684 5686 5687 5689 5690 5692 5694 5696 5698 5700 5701 5703 5705 5706 5708 5710 5713 5715 5717 5719 5722 5723 5725 5727 5728 5730 5731 5733 5734 5736 5737 5739 5740 5741 5742 5743 5744 5745 5747 5749 5751 5752 5754 5755 5757 5757 5759 5761 5763 5765
5671 5672 5672 5673 5673 5673 5673 5674 5675 5676 5677 5679 5680 5682 5683 5685 5686 5688 5689 5691 5693 5695 5696 5698 5700 5701 5703 5705 5706 5708 5711 5713 5715 5717 5718 5720 5722 5723 5725 5726 5727 5729 5730 5732 5732 5734 5735 5736 5737 5738 5740 5742 5743 5745 5747 5748 5749 5751 5752 5753 5754 5756 5758
5670 5670 5671 5672 5673 5673 5673 5673 5674 5675 5676 5677 5678 5680 5681 5683 5684 5686 5687 5688 5690 5691 5693 5695 5696 5698 5700 5701 5703 5705 5706 5708 5710 5712 5713 5715 5717 5718 5720 5721 5722 5724 5725 5726 5727 5728 5730 5730 5731 5732 5734 5736 5737 5739 5741 5742 5743 5744 5745 5746 5747 5748 5750
5669 5669 5670 5671 5671 5672 5672 5673 5673 5674 5674 5675 5676 5678 5679 5680 5682 5683 5685 5686 5687 5689 5690 5691 5693 5695 5696 5698 5700 5701 5703 5704 5706 5707 5708 5710 5711 5713 5714 5716 5717 5719 5720 5721 5722 5723 5724 5725 5726 5727 5728 5730 5731 5733 5734 5735 5736 5737 5738 5739 5740 5741 5741
5668 5669 5669 5670 5670 5671 5671 5671 5672 5672 5673 5674 5675 5676 5677 5678 5680 5681 5682 5684 5685 5686 5687 5689 5690 5691 5693 5694 5696 5697 5699 5700 5701 5702 5703 5704 5706 5707 5708 5710 5711 5713 5715 5716 5717 5718 5719 5719 5721 5722 5722 5723 5725 5726 5727 5728 5730 5730 5731 5731 5732 5733 5734
5668 5668 5669 5669 5670 5670 5670 5670 5671 5671 5672 5673 5674 5674 5675 5676 5678 5679 5680 5681 5682 5683 5685 5686 5687 5688 5689 5690 5692 5693 5694 5695 5696 5697 5698 5699 5700 5702 5703 5704 5706 5707 5709 5710 5711 5712 5713 5713 5714 5715 5716 5717 5717 5718 5719 5721 5722 5723 5723 5724 5725 5726 5727
5668 5668 5668 5669 5669 5669 5669 5670 5670 5670 5671 5672 5672 5673 5674 5675 5676 5677 5678 5679 5680 5681 5682 5683 5684 5685 5686 5687 5688 5689 5690 5691 5692 5693 5694 5695 5696 5697 5698 5699 5700 5702 5703 5703 5704 5705 5706 5707 5708 5708 5709 5709 5710 5710 5711 5713 5714 5715 5715 5716 5717 5718 5720
5668 5668 5668 5668 5668 5668 5669 5669 5669 5670 5670 5671 5671 5672 5673 5673 5674 5675 5676 5677 5677 5678 5679 5680 5681 5682 5683 5684 5685 5685 5686 5687 5688 5689 5689 5690 5691 5692 5693 5694 5695 5696 5697 5697 5698 5699 5699 5700 5701 5701 5702 5702 5702 5703 5704 5705 5706 5707 5708 5708 5709 5710 5712
5667 5667 5667 5667 5668 5668 5668 5668 5668 5669 5669 5670 5670 5671 5671 5672 5673 5673 5674 5675 5675 5676 5677 5678 5679 5679 5680 5681 5682 5682 5683 5683 5684 5685 5685 5686 5687 5687 5688 5689 5689 5690 5691 5691 5692 5693 5693 5694 5694 5695 5695 5695 5696 5696 5697 5698 5699 5699 5700 5700 5701 5702 5703